[[{"header":{"parameterUnit":"m.s-1","parameterCategory":1,"la1":30.2991,"la2":30.254,"lo1":-89.0895,"lo2":-89.0444,"dy":0.0017,"dx":0.0017,"nx":28,"ny":28,"refTime":"2023-07-25T03:00:00:Z","depth":0,"parameterNumber":2,"parameterNumberName":"U-component_of_WINDS"},"data":[0,0,0,0,0,0,0,0,0,0,0,0,0,0,0,0,0,0,0,0,0,0,0,0,0,0,0,0,0,0,0,0,0,0,0,0,0,0,0,0,0,0,0,0,0,0,0,0,0,0,0,0,0,0,0,0,0,0,1.1385,1.1386,0,1.1491,1.1492,1.1493,1.153,1.153,1.1529,1.1529,1.1638,1.1641,1.1644,0,0,0,0,0,0,0,0,0,0,0,0,0,1.1215,1.1218,1.1385,1.1386,1.1388,1.149,1.1492,1.1493,1.153,1.153,1.1529,1.1529,1.1637,1.164,1.1644,0,0,0,0,0,0,0,0,0,0,0,0,0,1.1301,1.1219,1.1385,1.1418,1.1422,1.149,1.1492,1.1494,1.153,1.153,1.1529,1.1529,1.1635,1.164,1.1645,1.1687,0,0,1.166,1.1662,0,0,0,0,0,0,0,0,1.1296,1.1308,1.1412,1.1416,1.1421,1.1497,1.1472,1.1558,1.1531,1.1489,1.1529,1.1528,1.1591,1.16,1.1621,1.1692,1.1697,1.166,1.1663,1.1665,1.1667,0,0,0,0,0,0,0,1.129,1.1303,1.1427,1.1414,1.1419,1.1428,1.144,1.1488,1.1542,1.1493,1.1496,1.1508,1.1593,1.1616,1.1624,1.1698,1.166,1.1664,1.1667,1.1669,1.1808,1.1809,0,0,0,0,0,0,1.1279,1.1298,1.1423,1.143,1.1356,1.1432,1.1445,1.1473,1.1542,1.1552,1.1508,1.1509,1.1608,1.1618,1.1628,1.1681,1.1665,1.167,1.1673,1.1807,1.1808,1.1809,0,0,0,0,0,0,1.1275,1.129,1.1419,1.1365,1.1382,1.1435,1.1467,1.1475,1.1498,1.1554,1.1563,1.1521,1.1608,1.1621,1.1672,1.1685,1.1672,1.1676,1.1806,1.1807,1.1808,1.1787,0,0,0,0,0,0,1.127,1.1288,1.1305,1.1365,1.1385,1.1461,1.1468,1.1478,1.1506,1.1508,1.1568,1.1578,1.1608,1.1664,1.1676,1.1691,1.168,1.1805,1.1807,1.1808,1.1787,1.1787,1.1788,0,0,0,0,0,1.1264,1.1295,1.1305,1.132,1.1407,1.1462,1.1473,1.1508,1.1507,1.1524,1.156,1.1576,1.1681,1.1669,1.1683,1.17,1.1805,1.1806,1.1808,1.1786,1.1787,1.1788,0,0,0,0,0,0,1.1235,1.1303,1.1316,1.1367,1.1409,1.1468,1.1491,1.1508,1.155,1.1551,1.1592,1.1605,1.1652,1.1681,1.1666,1.1743,1.1744,1.1748,1.1723,1.1724,1.1724,1.1716,1.1684,0,0,0,0,0,1.1235,1.1274,1.1332,1.1371,1.1391,1.1437,1.1463,1.1486,1.153,1.1548,1.1587,1.163,1.1673,1.17,1.1742,1.1791,1.1804,1.1809,1.181,1.181,1.1813,1.184,1.1843,1.1814,1.1814,1.1814,0,0,1.1235,1.1277,1.1299,1.1367,1.1401,1.1441,1.1452,1.1494,1.1523,1.1554,1.1604,1.1635,1.1685,1.1734,1.1758,1.176,1.1824,1.1812,1.1812,1.1815,1.1842,1.1845,1.1847,1.1816,1.1815,1.1815,0,0,1.1254,1.129,1.1327,1.1361,1.1413,1.1444,1.1452,1.1509,1.153,1.1581,1.1605,1.1641,1.1714,1.1748,1.1775,1.1806,1.1823,1.1819,1.1821,1.1847,1.185,1.1852,1.1862,1.1865,1.1822,1.1822,1.1822,0,1.1247,1.1308,1.1344,1.1384,1.1412,1.1442,1.1479,1.1511,1.1574,1.1593,1.1594,1.1685,1.1721,1.1779,1.1786,1.1807,1.1818,1.1812,1.1846,1.1849,1.1851,1.1862,1.1866,1.1822,1.1822,1.1822,1.1822,0,1.1296,1.1338,1.1361,1.1421,1.1452,1.149,1.1532,1.1559,1.1579,1.1609,1.166,1.1704,1.1755,1.1771,1.1791,1.1831,1.183,1.1838,1.184,1.1853,1.1863,1.1867,1.182,1.1821,1.1821,1.1821,0,0,1.1302,1.138,1.1388,1.1414,1.1474,1.1506,1.1546,1.1595,1.1618,1.166,1.1694,1.1754,1.1762,1.1792,1.1816,1.1839,1.186,1.1844,1.1846,1.1845,1.1906,1.1899,1.1903,1.1871,1.1872,1.1873,1.1901,0,1.1328,1.14,1.1432,1.1489,1.1527,1.1555,1.1589,1.1629,1.1658,1.1694,1.1726,1.1768,1.1775,1.1794,1.1818,1.1852,1.1873,1.1851,1.1902,1.1904,1.1888,1.1909,1.1902,1.1927,1.1906,1.1907,1.1907,0,1.1369,1.1411,1.1471,1.1524,1.1542,1.1572,1.1619,1.1654,1.1699,1.1719,1.1752,1.1775,1.1817,1.1815,1.1874,1.1858,1.1881,1.1901,1.1903,1.1909,1.1906,1.1914,1.1936,1.1939,1.1914,1.1913,1.1913,0,1.1366,1.1437,1.1482,1.1504,1.1568,1.1588,1.1616,1.166,1.1688,1.173,1.1748,1.1794,1.1819,1.1854,1.1889,1.1885,1.1943,1.1945,1.196,1.1959,1.1971,1.197,1.1996,1.1987,1.1987,1.1987,1.1987,0,1.1392,1.1427,1.1481,1.1508,1.1549,1.1586,1.1625,1.1654,1.1694,1.1727,1.1755,1.1786,1.183,1.1866,1.1894,1.1937,1.1949,1.1965,1.1972,1.1963,1.196,1.1978,1.1977,1.1988,1.1987,1.1987,1.1987,0,1.1395,1.1432,1.1483,1.1538,1.1553,1.158,1.1628,1.1656,1.1686,1.1728,1.174,1.1787,1.1831,1.1869,1.1928,1.1946,1.199,1.1999,1.1975,1.1978,1.1991,1.1989,1.2029,1.2036,1.2023,1.2023,1.2023,0,1.1408,1.1436,1.1495,1.1519,1.1546,1.1585,1.1613,1.165,1.1678,1.1731,1.1752,1.1798,1.1837,1.1906,1.1946,1.199,1.2,1.2011,1.2007,1.1996,1.1999,1.1997,1.2,1.2011,1.2011,1.2011,1.2011,0,1.1429,1.1446,1.1485,1.153,1.1562,1.16,1.1638,1.1656,1.1701,1.1731,1.1776,1.1806,1.1865,1.1911,1.1959,1.1988,1.2007,1.2011,1.2017,1.2008,1.1992,1.2,1.1974,1.201,1.201,1.201,1.201,1.201,1.1438,1.1463,1.1508,1.155,1.1583,1.1618,1.1646,1.1679,1.1717,1.1768,1.1788,1.1834,1.1878,1.1945,1.1973,1.201,1.2013,1.2021,1.2024,1.2025,1.2023,1.1987,1.2019,1.2019,1.2019,1.2019,1.2019,0,1.1459,1.1489,1.1527,1.1579,1.1612,1.1627,1.1669,1.1696,1.1736,1.1775,1.1813,1.1864,1.1908,1.195,1.1996,1.2017,1.2027,1.2028,1.2027,1.2033,1.2018,1.2008,1.2019,1.2019,1.2019,1.2019,1.2019,1.2019,1.1474,1.1517,1.1539,1.1599,1.1629,1.1674,1.1697,1.1729,1.176,1.1816,1.1853,1.188,1.192,1.1969,1.201,1.2021,1.2037,1.2035,1.2049,1.2034,1.2034,1.2033,1.2024,1.2038,1.2038,1.206,1.206,1.2061]},{"header":{"parameterUnit":"m.s-1","parameterCategory":1,"la1":30.2991,"la2":30.254,"lo1":-89.0895,"lo2":-89.0444,"dy":0.0017,"dx":0.0017,"nx":28,"ny":28,"refTime":"2023-07-25T03:00:00:Z","depth":0,"parameterNumber":3,"parameterNumberName":"V-component_of_WINDS"},"data":[0,0,0,0,0,0,0,0,0,0,0,0,0,0,0,0,0,0,0,0,0,0,0,0,0,0,0,0,0,0,0,0,0,0,0,0,0,0,0,0,0,0,0,0,0,0,0,0,0,0,0,0,0,0,0,0,0,0,1.021,1.0209,0,1.0159,1.0158,1.0158,1.0138,1.0138,1.0138,1.0138,1.0082,1.008,1.0079,0,0,0,0,0,0,0,0,0,0,0,0,0,1.0285,1.0284,1.021,1.0209,1.0208,1.0159,1.0158,1.0158,1.0138,1.0138,1.0138,1.0138,1.0082,1.008,1.0078,0,0,0,0,0,0,0,0,0,0,0,0,0,1.0245,1.0283,1.021,1.0193,1.0191,1.0159,1.0158,1.0157,1.0138,1.0138,1.0138,1.0138,1.0083,1.0081,1.0078,1.0059,0,0,1.0071,1.007,0,0,0,0,0,0,0,0,1.0247,1.0242,1.0196,1.0194,1.0191,1.0155,1.0164,1.0124,1.0137,1.0158,1.0138,1.0138,1.0106,1.0101,1.0091,1.0056,1.0054,1.007,1.0069,1.0068,1.0067,0,0,0,0,0,0,0,1.025,1.0244,1.0189,1.0195,1.0192,1.0186,1.018,1.0156,1.0131,1.0156,1.0154,1.0149,1.0104,1.0094,1.009,1.0053,1.007,1.0068,1.0067,1.0066,0.9997,0.9997,0,0,0,0,0,0,1.0256,1.0247,1.0191,1.0188,1.0221,1.0184,1.0178,1.0166,1.0131,1.0126,1.0149,1.0148,1.0098,1.0093,1.0088,1.0062,1.0068,1.0066,1.0064,0.9998,0.9997,0.9997,0,0,0,0,0,0,1.0258,1.0252,1.0193,1.0217,1.0209,1.0183,1.017,1.0165,1.0154,1.0126,1.0121,1.0143,1.0098,1.0091,1.0066,1.0059,1.0064,1.0062,0.9998,0.9998,0.9997,1.001,0,0,0,0,0,0,1.026,1.0252,1.0246,1.0217,1.0208,1.0174,1.0169,1.0164,1.0151,1.0149,1.0119,1.0114,1.0097,1.007,1.0064,1.0056,1.006,0.9999,0.9998,0.9997,1.001,1.001,1.001,0,0,0,0,0,1.0263,1.0251,1.0246,1.0239,1.0199,1.0174,1.0168,1.0151,1.015,1.0143,1.0124,1.0115,1.0061,1.0067,1.006,1.0052,0.9999,0.9998,0.9997,1.001,1.001,1.001,0,0,0,0,0,0,1.0278,1.0247,1.0241,1.0219,1.0199,1.017,1.016,1.0151,1.013,1.013,1.0108,1.0101,1.0077,1.0062,1.0069,1.003,1.0029,1.0027,1.0041,1.0041,1.0041,1.0045,1.0058,0,0,0,0,0,1.0279,1.0262,1.0235,1.0219,1.0209,1.0187,1.0175,1.0163,1.0141,1.0132,1.0112,1.0089,1.0068,1.0054,1.0032,1.0008,1.0,0.9999,0.9999,0.9999,0.9997,0.9981,0.998,0.9994,0.9994,0.9994,0,0,1.0281,1.0262,1.0252,1.0221,1.0205,1.0186,1.018,1.016,1.0146,1.0129,1.0104,1.0088,1.0062,1.0037,1.0025,1.0023,0.9991,0.9998,0.9998,0.9996,0.9981,0.9979,0.9978,0.9994,0.9994,0.9994,0,0,1.0274,1.0259,1.0243,1.0226,1.0201,1.0186,1.0183,1.0155,1.0144,1.0119,1.0105,1.0087,1.005,1.0032,1.0017,1.0003,0.9993,0.9997,0.9996,0.9982,0.998,0.9979,0.9973,0.9971,0.9995,0.9995,0.9995,0,1.0279,1.0252,1.0235,1.0217,1.0203,1.0188,1.017,1.0155,1.0124,1.0114,1.0113,1.0066,1.0047,1.0017,1.0014,1.0003,0.9997,1.0,0.9982,0.9981,0.9979,0.9973,0.9971,0.9995,0.9995,0.9995,0.9995,0,1.0258,1.024,1.023,1.0201,1.0186,1.0168,1.0147,1.0134,1.0123,1.0108,1.0082,1.0059,1.0032,1.0024,1.0013,0.9992,0.9992,0.9987,0.9985,0.9979,0.9973,0.997,0.9996,0.9996,0.9996,0.9996,0,0,1.026,1.0223,1.0219,1.0205,1.0177,1.0161,1.0142,1.0117,1.0105,1.0084,1.0066,1.0035,1.003,1.0014,1.0001,0.9988,0.9977,0.9985,0.9983,0.9983,0.995,0.9954,0.9951,0.997,0.997,0.9969,0.9952,0,1.0249,1.0216,1.02,1.0172,1.0154,1.0139,1.0122,1.0102,1.0086,1.0067,1.005,1.0028,1.0024,1.0014,1.0001,0.9981,0.997,0.9982,0.9952,0.9951,0.9958,0.9948,0.9952,0.9937,0.995,0.9949,0.9949,0,1.0232,1.0212,1.0183,1.0156,1.0147,1.0133,1.0108,1.009,1.0066,1.0056,1.0038,1.0025,1.0002,1.0002,0.997,0.9979,0.9965,0.9953,0.9952,0.9948,0.9949,0.9943,0.9932,0.9929,0.9945,0.9945,0.9946,0,1.0235,1.02,1.0179,1.0168,1.0135,1.0125,1.0111,1.0087,1.0073,1.005,1.004,1.0015,1.0001,0.9981,0.9961,0.9963,0.993,0.9929,0.9919,0.992,0.9912,0.9913,0.9898,0.9905,0.9905,0.9905,0.9905,0,1.0223,1.0206,1.0179,1.0166,1.0146,1.0127,1.0107,1.0091,1.007,1.0052,1.0037,1.002,0.9995,0.9974,0.9958,0.9933,0.9927,0.9917,0.9912,0.9917,0.9919,0.9908,0.9908,0.9905,0.9905,0.9905,0.9905,0,1.0223,1.0205,1.018,1.0152,1.0144,1.013,1.0105,1.009,1.0074,1.0052,1.0045,1.0019,0.9994,0.9972,0.9939,0.9928,0.9901,0.9897,0.991,0.9908,0.9899,0.9899,0.9876,0.9871,0.9882,0.9882,0.9882,0,1.0217,1.0204,1.0174,1.0162,1.0148,1.0128,1.0113,1.0093,1.0078,1.0049,1.0038,1.0012,0.999,0.995,0.9927,0.9901,0.9895,0.9889,0.9891,0.9896,0.9894,0.9894,0.9892,0.9888,0.9888,0.9888,0.9888,0,1.0208,1.0199,1.018,1.0156,1.0139,1.012,1.01,1.009,1.0066,1.0049,1.0024,1.0007,0.9973,0.9947,0.9918,0.9901,0.989,0.9888,0.9884,0.9888,0.9896,0.9891,0.9909,0.9888,0.9888,0.9888,0.9888,0.9888,1.0204,1.0191,1.0168,1.0146,1.0129,1.011,1.0095,1.0077,1.0056,1.0028,1.0017,0.999,0.9965,0.9925,0.9909,0.9887,0.9885,0.988,0.9878,0.9877,0.9877,0.9901,0.9881,0.9881,0.9881,0.9881,0.9881,0,1.0193,1.0177,1.0158,1.013,1.0112,1.0105,1.0082,1.0067,1.0044,1.0022,1.0001,0.9971,0.9945,0.9921,0.9893,0.988,0.9874,0.9873,0.9874,0.987,0.9881,0.9887,0.9879,0.9879,0.9879,0.9879,0.9879,0.9879,1.0185,1.0163,1.0151,1.0119,1.0103,1.0078,1.0065,1.0047,1.0029,0.9997,0.9976,0.9961,0.9937,0.9907,0.9882,0.9876,0.9865,0.9866,0.9858,0.9868,0.9869,0.9869,0.9875,0.9864,0.9864,0.9848,0.9848,0.9848]}]]